SCOUT X-4 DEB, 732

Orbit data source: Space-Track

SCOUT X-4 DEB, 732 is space debris in LEO originally from a launch on Thu, 19 Dec 1963 UTC launched from the Air Force Western Test Range (AFWTR). Debris objects in space refer to the collection of defunct objects orbiting the Earth. Examples of debris include non-operational satellites, rocket bodies, and fragments generated from explosions, collisions, or faulty payload assembly.

Loading next visibility...
Identifier
732, 1963-053H
Orbit
LEO
Country
Flag of USUS
Related business
Manufacturer
Unknown
Mission
Spacecraft
Bus & Motor
Unknown
Mass
Unknown
Launch date (UTC)
1963-12-19 (62 years ago)
Launch vehicle
Unknown
Launch site
Air Force Western Test Range (AFWTR)
Object type
Payload
Rocket body
Debris
Shape & HBR
Unknown
Radar Cross Section
Small (<0.1 m²)

Expand to show TLE details & history
Last TLE update: 21 hours ago

TLE from 21 hours ago
0 SCOUT X-4 DEB
1 00732U 63053H   25242.39098805  .00008766  00000-0  26327-2 0  9995
2 00732  78.5536 231.0506 0432903  80.9693 284.0180 13.99858074934341
Epoch: 2025-08-30T09:23Z
TLE epoch observation values (Epoch: 2025-08-30T09:23:01.367Z)
Latitude
-0.00001°
Longitude
111.46894°
Altitude
833.826 km
Speed
7.468 km/s
True Right ascension
15h 24m 12s
True Declination
0° 00' 00"
Sunlit
Object was in daylight at epoch
Visualization orbit readout
Latitude
Unknown
Longitude
Unknown
Altitude
Unknown
Speed
Unknown
Apparent Right ascension
Unknown
Apparent Declination
Unknown
Sunlit
N/A
Visualization observer readout
Local Sidereal Time
21:38:36
Azimuth
Unknown
Elevation
Unknown
Doppler factor
Unknown
Orbital elements
Apogee altitude
1,206.324 km
Perigee altitude
576.904 km
Semi-major axis
7,269.751 km
Eccentricity
0.04329
Inclination
78.5536°
RAAN
231.0506°
Arg. of periapsis
80.9693°
True anomaly
279.14702°
Mean anomaly
284.018°
Eccentric anomaly
281.58821°
Mean motion
3.50158 °/min
Orbital period
102.81 mins
BSTAR
0.0026327
Loading maneuver chart data...
Computing Atmospheric mass density...
Loading historical data...
Loading historical data...
Loading historical data...
Loading historical data...
Loading historical data...
Loading historical data...
Loading historical data...

Documentation

Showing up to 5 results
|